Flag Weather past 2 weeks in Rancho Cucamonga, California, U.S.A.

Now
60 °F

Passing clouds.


Feels Like: 60 °F
Forecast: 55 / 71 °F
Wind: 5 mph from North

Location: Ontario International Airport

Current Time: Oct 31, 2014 at 12:48:22 AM

Latest Report: Oct 30, 2014 at 11:53 PM


Visibility: 10 mi

Pressure: 29.95 "Hg

Humidity: 80%

Dew point: 54 °F

Location of Rancho CucamongaLocation

Historic Weather in Rancho Cucamonga — Graph

°F

Rancho Cucamonga temperature yesterday

Maximum temperature yesterday: 84 °F (at 1:53 PM)
Minimum temperature yesterday: 60 °F (at 4:53 AM)
Average temperature yesterday: 69 °F

Past Weeks' High & Low Weather Summary

 TemperatureHumidityPressure
High92 °F (Oct 24, 1:53 PM)97% (Oct 20, 8:53 AM)30.03 "Hg (Oct 20, 8:53 AM)
Low55 °F (Oct 26, 6:53 AM)11% (Oct 24, 1:53 PM)29.79 "Hg (Oct 18, 4:53 PM)
Average69 °F57%29.92 "Hg
* Reported Oct 15 11:53 PM — Oct 30 11:53 PM, Rancho Cucamonga, Weather by CustomWeather, © 2014

Note: Actual official high and low records may vary slightly from our data, if they occured in-between our weather recording intervals... More about our weather records

Advertising

Rancho Cucamonga weather history for previous 24 hours

 ConditionsComfort  
Time TempWeatherWind HumidityBarometerVisibility
11:53 PM
Oct 30
60 °FPassing clouds.5 mph80%29.95 "Hg10 mi
10:53 PM63 °FPassing clouds.No wind78%29.95 "Hg10 mi
9:53 PM65 °FPassing clouds.No wind76%29.95 "Hg10 mi
8:53 PM67 °FPassing clouds.5 mph68%29.94 "Hg10 mi
7:53 PM68 °FPassing clouds.6 mph68%29.93 "Hg10 mi
6:53 PM70 °FPartly sunny.8 mph66%29.92 "Hg10 mi
5:53 PM73 °FPartly sunny.10 mph55%29.90 "Hg10 mi
4:53 PM76 °FPartly sunny.15 mph48%29.90 "Hg10 mi
3:53 PM83 °FBroken clouds.10 mph30%29.88 "Hg10 mi
2:53 PM84 °FBroken clouds.12 mph23%29.88 "Hg10 mi
1:53 PM84 °FScattered clouds.8 mph23%29.89 "Hg10 mi
12:53 PM81 °FScattered clouds.6 mph24%29.93 "Hg10 mi
11:53 AM75 °FBroken clouds.3 mph32%29.95 "Hg10 mi
10:53 AM73 °FBroken clouds.3 mph33%29.97 "Hg10 mi
9:53 AM71 °FBroken clouds.5 mph35%29.97 "Hg10 mi
8:53 AM66 °FPartly sunny.No wind49%29.98 "Hg10 mi
7:53 AM62 °FPassing clouds.No wind52%29.97 "Hg10 mi
6:53 AM60 °FPassing clouds.No wind65%29.96 "Hg10 mi
5:53 AM60 °FPassing clouds.No wind72%29.96 "Hg10 mi
4:53 AM60 °FPassing clouds.No wind69%29.95 "Hg10 mi
3:53 AM62 °FPassing clouds.No wind65%29.94 "Hg10 mi
2:53 AM61 °FPassing clouds.No wind70%29.95 "Hg10 mi
1:53 AM62 °FPassing clouds.3 mph65%29.96 "Hg10 mi
12:53 AM62 °FPassing clouds.3 mph60%29.96 "Hg10 mi
Weather by CustomWeather, © 2014

See weather overviewHow to use our weather pages